Wind_Speed
75 72 69 66 63 60 61 60 55 59 67 74 78 81 83 86 86 91 90 93 91 90 88 86 83 87 84 82 81 79 75 71 65 67 63 65 72 68 66 64 65 69 70 76 80 77 76
77 77 78 77 70 72 72 69 64 58 57 65 70 75 72 78 75 76 81 80 86 88 89 85 87 82 83 83 81 79 71 61 68 67 65 68 65 65 65 66 70 69 67 68 69 69 68
79 79 81 80 79 80 77 70 68 69 66 63 66 71 68 70 74 73 71 69 76 81 88 92 90 85 86 77 82 80 67 64 68 66 66 64 63 64 67 69 66 61 59 53 53 53 54
84 82 81 82 82 79 80 80 76 65 60 67 64 67 72 64 70 69 68 67 68 70 76 83 85 86 81 81 75 70 64 68 67 65 63 60 64 66 67 62 55 49 45 43 43 41 43
83 87 85 86 85 88 89 85 81 76 69 62 63 64 69 57 59 66 62 58 51 58 68 70 73 76 74 73 69 61 62 63 61 59 58 62 65 64 56 51 45 39 38 40 40 40 48
84 85 87 90 91 90 89 89 86 80 71 63 56 57 67 54 54 58 53 46 43 47 55 63 64 64 69 66 58 60 58 55 54 55 58 61 60 53 47 43 38 34 35 36 37 45 50
85 90 91 94 96 94 90 84 84 80 70 58 50 51 63 56 50 51 45 40 41 42 48 51 48 55 60 55 53 51 50 50 52 55 57 56 51 44 41 36 31 28 31 34 40 44 47
84 86 98 100 105 101 93 86 82 76 61 53 47 49 52 45 46 48 38 39 44 42 44 39 44 52 48 46 46 40 44 46 53 53 52 46 41 35 31 26 23 25 32 37 42 46 52
92 94 99 106 111 102 93 85 77 67 56 48 42 44 44 37 44 40 36 33 38 42 38 39 43 37 39 40 35 36 39 45 49 49 43 33 28 21 18 14 19 27 33 38 43 52 55
92 98 104 109 111 101 94 84 72 61 50 45 39 38 36 31 41 37 32 33 36 39 38 38 33 33 28 33 31 32 36 41 44 41 32 22 17 9 9 13 19 24 33 38 41 52 58
99 106 110 112 110 98 87 74 64 52 43 41 37 35 29 33 33 29 31 31 33 32 33 27 24 20 22 25 28 32 37 38 39 32 22 13 7 5 8 13 19 25 32 36 40 46 52
113 113 114 112 104 92 78 63 54 45 38 37 32 33 32 33 31 29 30 31 31 30 24 17 12 12 17 20 26 30 35 37 34 23 13 7 3 4 8 13 18 22 26 34 41 45 48
121 117 115 104 94 80 66 54 42 34 30 28 23 31 33 32 36 32 35 32 30 25 11 5 2 8 14 16 25 29 32 32 25 16 9 8 10 10 10 9 15 21 28 33 38 43 45
122 118 109 96 81 68 56 44 33 25 19 14 20 30 30 32 31 33 34 30 27 14 11 5 4 6 9 15 23 27 26 24 18 12 10 12 13 16 14 13 12 15 24 31 34 37 37
119 112 98 86 70 60 46 35 25 17 12 17 26 31 34 31 31 32 33 30 20 16 13 9 6 6 11 16 22 24 22 19 13 11 12 13 14 17 16 14 13 18 22 24 28 31 34
110 103 86 73 63 50 38 27 19 10 13 20 24 25 31 31 33 34 34 26 26 21 15 10 9 9 11 14 20 20 18 13 14 15 14 14 16 15 16 14 15 16 18 22 25 28 31
110 96 77 65 55 43 31 20 10 2 8 19 27 29 33 37 38 37 32 30 30 22 18 13 14 13 12 18 17 16 15 15 19 18 18 16 18 17 15 12 11 11 13 12 13 20 27
107 87 72 58 47 34 21 12 6 14 21 22 28 32 42 46 43 37 32 36 29 25 21 20 19 16 16 17 17 16 20 21 24 24 24 20 21 20 23 21 17 8 13 11 8 11 12
99 81 64 49 39 25 17 10 13 25 29 29 40 46 45 48 43 37 37 36 31 27 28 26 25 20 21 21 23 26 27 25 31 32 31 30 28 26 24 27 22 23 21 19 18 12 8
89 73 55 40 30 17 15 19 18 25 28 32 45 51 51 45 37 40 39 36 32 32 34 30 29 26 28 27 29 33 34 36 38 39 36 37 38 36 31 27 25 24 24 22 19 18 13
82 63 46 35 18 15 17 23 23 35 37 41 47 50 47 44 43 43 38 34 32 36 37 33 30 31 35 35 37 38 37 41 43 42 44 46 43 39 38 37 35 33 29 22 18 15 11
74 54 40 25 15 17 17 22 28 40 48 48 51 48 44 42 45 41 37 33 31 34 36 35 35 38 41 39 42 43 45 46 46 45 46 47 46 47 46 43 39 37 34 30 27 24 20
66 46 37 15 18 19 17 22 30 41 46 43 42 41 40 44 45 40 35 34 33 32 33 35 36 40 42 44 45 46 47 47 47 49 50 50 52 50 48 50 48 47 45 40 36 30 26
59 40 35 21 22 20 20 27 39 47 47 49 50 48 42 46 44 40 36 35 35 35 35 35 36 38 41 42 44 46 49 48 49 49 49 49 50 50 47 47 47 44 43 36 31 28 25
56 35 26 28 25 24 22 30 39 43 46 46 49 48 47 44 42 38 36 33 32 33 33 33 33 35 36 38 39 40 42 44 44 43 43 44 42 43 43 41 38 36 34 32 27 26 27
54 32 20 31 25 21 23 30 34 36 37 46 46 46 45 42 38 36 33 30 29 27 25 26 28 29 28 29 32 34 35 37 39 38 41 41 40 38 37 35 33 33 30 28 27 24 23
53 34 19 28 27 22 16 22 29 31 38 43 46 44 42 40 36 32 29 27 26 25 22 21 20 20 22 24 25 26 28 30 32 32 32 32 33 33 33 31 30 30 32 33 33 32 32
54 36 19 21 19 10 7 20 32 39 44 45 44 41 39 36 32 28 24 23 21 19 18 16 16 15 16 18 19 21 23 24 26 26 26 28 29 30 30 32 33 35 36 37 36 41 39
64 45 16 10 10 7 3 23 38 43 44 44 43 40 36 33 30 25 20 20 19 16 14 12 9 8 10 11 13 15 17 18 20 22 22 23 24 25 28 29 31 32 34 36 37 39 42
Wind_Direction
339 339 335 330 327 320 318 316 306 291 280 278 275 275 275 274 271 270 269 267 268 270 273 274 276 280 282 285 290 289 292 290 295 295 293 284 278 278 278 281 279 271 265 259 258 253 244
334 334 330 328 327 324 320 318 314 306 298 292 282 277 276 275 272 270 268 266 265 269 271 274 275 276 279 284 287 289 288 293 297 296 292 286 282 283 289 286 280 275 269 262 257 251 242
335 332 329 328 322 319 319 318 314 311 306 297 290 283 276 272 273 269 268 266 264 265 266 270 272 276 281 283 286 287 290 297 298 297 291 287 289 292 290 284 279 276 269 264 253 245 232
334 331 327 323 320 316 315 317 316 313 307 305 294 291 283 271 270 271 268 266 264 263 264 266 271 274 279 281 283 287 295 298 299 295 292 294 294 293 287 284 281 274 266 254 245 236 225
333 331 325 326 323 319 317 316 316 316 311 303 296 289 282 275 268 267 268 266 262 259 260 265 268 273 277 280 284 290 296 297 297 295 295 297 295 291 291 286 277 265 254 245 238 224 210
329 332 330 327 322 319 317 316 314 314 310 303 293 281 278 280 267 267 265 261 264 260 260 263 269 276 278 279 287 294 295 295 299 296 298 297 296 296 290 280 266 250 239 233 219 213 208
329 332 329 328 326 322 317 316 314 312 308 298 286 273 271 279 265 263 260 257 264 260 261 265 271 276 276 283 292 295 297 301 299 300 300 302 302 297 288 276 263 243 226 211 211 206 199
331 325 329 328 328 323 321 318 314 307 301 292 277 264 268 272 260 256 249 253 259 258 262 270 273 275 284 291 293 298 302 300 300 305 307 306 300 295 283 268 249 218 205 205 205 198 191
329 328 327 326 327 325 322 318 312 305 297 284 272 262 265 261 252 242 240 249 251 254 262 267 271 283 293 292 296 305 301 302 307 309 309 307 298 293 272 246 222 207 207 204 197 191 186
330 330 329 328 328 325 322 316 311 303 291 280 267 260 256 249 239 229 235 243 243 250 255 263 274 287 295 295 308 305 300 311 313 316 314 311 304 271 228 196 213 207 206 206 203 192 187
336 333 331 331 330 322 317 314 309 298 282 270 260 250 242 232 224 219 227 227 231 241 247 262 278 292 294 308 311 309 318 319 322 322 319 324 309 224 176 188 200 203 205 205 203 193 190
342 336 336 332 328 320 318 312 307 295 282 265 254 240 227 217 211 203 209 208 222 234 250 268 276 291 301 314 310 323 326 326 325 329 333 358 41 128 157 184 196 202 207 205 199 196 198
342 342 337 331 325 323 318 314 305 296 278 261 240 232 222 205 195 190 192 201 214 225 236 220 320 321 318 315 322 336 331 332 328 338 7 63 95 109 144 145 193 199 207 208 201 201 202
342 341 337 330 328 324 321 316 306 292 274 251 217 216 202 197 192 188 187 191 209 211 165 130 32 351 336 332 339 340 338 336 340 353 49 75 100 111 140 155 177 194 204 205 203 204 202
344 340 334 333 330 328 327 320 314 291 242 195 194 201 188 181 180 181 183 186 197 160 122 87 57 35 360 340 354 344 351 344 5 24 56 82 99 122 140 153 162 177 196 200 197 199 205
343 338 335 336 334 334 329 330 317 279 208 192 187 187 177 175 173 177 173 182 143 123 104 86 78 44 14 4 2 358 5 14 43 44 59 72 90 115 130 143 156 164 181 195 198 195 199
345 339 337 340 338 336 334 333 329 282 174 162 175 170 167 159 165 166 171 146 125 112 100 90 68 50 28 23 12 17 35 46 59 62 69 80 89 90 109 112 128 153 176 187 195 203 202
346 341 342 342 341 343 346 359 50 120 132 136 140 156 155 152 155 159 154 129 118 109 95 82 74 59 46 35 31 34 57 70 73 75 76 80 87 98 98 97 97 110 71 71 76 63 228
347 343 346 345 346 356 18 67 113 128 119 138 144 149 149 151 156 152 136 123 118 112 92 82 76 67 65 57 57 57 64 72 85 84 83 85 91 97 100 103 110 101 105 109 103 80 85
348 347 350 349 348 21 57 99 116 126 127 139 139 144 149 153 153 140 129 123 120 107 94 86 81 76 77 72 66 69 74 77 78 84 87 90 90 90 93 103 115 117 121 130 129 125 137
349 352 357 354 354 57 96 104 123 128 136 144 141 146 152 150 143 134 127 121 116 106 97 92 92 86 80 79 76 72 72 72 75 77 79 81 84 89 93 94 98 101 100 100 98 104 116
352 357 5 359 9 67 94 118 135 133 142 148 145 149 150 147 137 130 122 116 112 104 98 91 89 86 83 82 80 79 78 74 73 72 75 74 76 80 81 82 83 84 85 91 93 88 87
355 2 7 17 46 71 88 126 129 134 138 144 146 151 151 142 131 124 121 115 105 98 92 93 87 81 77 75 74 76 76 74 71 69 68 68 68 66 64 63 65 67 69 66 63 62 58
357 7 11 48 58 61 95 137 135 135 139 144 145 148 146 135 131 128 126 116 109 101 94 88 85 79 73 69 71 71 71 70 68 67 68 64 62 60 64 66 68 68 67 66 65 61 57
358 9 28 53 62 75 109 131 131 134 141 146 146 147 144 137 132 131 128 124 116 109 104 97 90 86 81 78 77 76 77 75 74 75 73 71 69 68 68 69 73 70 66 68 73 69 60
359 7 37 54 56 55 111 113 128 138 144 147 147 149 142 138 133 127 130 132 125 116 110 103 98 92 85 80 76 77 76 74 76 76 77 75 74 75 71 72 72 72 68 69 65 60 54
0 3 27 52 51 54 116 119 132 143 151 150 147 147 142 138 133 130 131 139 134 128 121 111 103 96 91 85 82 80 75 75 72 68 69 67 65 64 63 62 60 52 48 45 37 32 31
1 2 8 28 28 26 89 151 152 156 156 155 151 149 142 136 135 134 137 136 139 139 132 124 116 106 94 85 80 74 68 62 60 57 53 51 49 47 44 42 36 32 28 25 22 21 19
360 359 341 354 14 14 139 171 161 161 163 156 154 150 144 140 138 142 151 141 136 136 136 133 123 106 92 83 73 63 58 54 45 40 40 37 38 35 31 27 26 23 21 16 13 10 6
Height
10645 10636 10628 10619 10613 10603 10594 10586 10578 10572 10565 10561 10556 10555 10551 10550 10555 10556 10562 10572 10576 10575 10577 10580 10582 10578 10581 10576 10571 10569 10565 10562 10558 10550 10543 10536 10529 10528 10525 10524 10521 10518 10520 10517 10518 10524 10531
10637 10626 10616 10606 10597 10588 10579 10570 10562 10553 10546 10539 10536 10532 10530 10527 10530 10533 10537 10546 10554 10556 10556 10560 10560 10562 10564 10559 10557 10551 10547 10547 10541 10532 10524 10517 10512 10508 10506 10501 10494 10492 10490 10490 10494 10497 10506
10626 10615 10604 10593 10583 10572 10561 10554 10545 10538 10530 10522 10514 10511 10509 10508 10509 10510 10517 10524 10530 10537 10539 10538 10539 10544 10545 10544 10540 10534 10531 10530 10522 10513 10507 10501 10495 10491 10483 10479 10472 10468 10467 10469 10471 10477 10486
10614 10603 10591 10579 10569 10557 10546 10535 10525 10519 10514 10505 10497 10489 10484 10490 10490 10492 10496 10503 10512 10517 10518 10521 10524 10527 10530 10527 10524 10520 10519 10512 10507 10498 10491 10485 10479 10472 10465 10456 10451 10448 10450 10451 10457 10467 10478
10603 10590 10577 10566 10552 10539 10526 10514 10504 10496 10491 10485 10477 10470 10463 10470 10471 10472 10477 10485 10493 10498 10503 10507 10509 10513 10513 10512 10509 10508 10505 10497 10493 10485 10476 10469 10461 10452 10443 10434 10432 10432 10434 10438 10448 10458 10470
10593 10577 10562 10547 10532 10518 10506 10495 10482 10473 10467 10460 10457 10449 10446 10452 10454 10456 10462 10471 10477 10482 10487 10491 10496 10502 10499 10497 10498 10497 10489 10485 10477 10468 10463 10455 10443 10432 10424 10419 10416 10416 10419 10429 10440 10449 10460
10575 10561 10546 10529 10513 10498 10485 10473 10462 10451 10443 10435 10430 10426 10426 10436 10439 10440 10448 10459 10465 10470 10474 10480 10487 10487 10484 10487 10487 10485 10477 10472 10461 10455 10448 10438 10424 10416 10410 10404 10404 10409 10413 10422 10431 10445 10459
10560 10542 10524 10507 10491 10474 10458 10445 10434 10423 10414 10407 10405 10407 10407 10416 10421 10425 10437 10447 10455 10460 10464 10472 10474 10472 10476 10476 10474 10474 10469 10461 10450 10441 10434 10423 10413 10406 10399 10396 10397 10404 10410 10418 10429 10443 10455
10539 10519 10500 10479 10460 10442 10427 10413 10400 10391 10385 10381 10382 10388 10391 10399 10404 10412 10427 10437 10443 10451 10458 10462 10462 10468 10469 10464 10465 10464 10458 10452 10440 10430 10421 10414 10404 10398 10391 10392 10394 10399 10405 10415 10430 10442 10451
10517 10497 10476 10454 10433 10413 10394 10379 10370 10363 10361 10360 10363 10369 10374 10386 10390 10402 10419 10426 10436 10443 10449 10452 10457 10461 10462 10455 10456 10453 10449 10441 10431 10419 10412 10406 10397 10396 10390 10391 10392 10400 10406 10416 10427 10437 10446
10496 10473 10452 10431 10410 10391 10374 10358 10345 10339 10338 10340 10345 10353 10362 10369 10381 10395 10407 10418 10428 10435 10440 10448 10453 10455 10452 10451 10450 10445 10436 10430 10420 10413 10407 10401 10394 10392 10393 10393 10396 10402 10409 10417 10427 10440 10447
10473 10451 10429 10407 10385 10366 10351 10336 10326 10319 10320 10323 10328 10338 10348 10359 10373 10384 10398 10411 10422 10430 10438 10445 10448 10448 10446 10446 10444 10439 10430 10419 10413 10408 10403 10399 10393 10390 10391 10394 10399 10405 10413 10422 10431 10441 10450
10454 10432 10408 10384 10362 10344 10328 10316 10308 10305 10305 10309 10317 10327 10339 10353 10365 10376 10389 10403 10417 10426 10437 10441 10442 10442 10442 10442 10438 10432 10424 10416 10408 10405 10401 10397 10394 10392 10394 10399 10404 10411 10417 10425 10435 10444 10453
10435 10409 10385 10361 10341 10323 10310 10300 10295 10293 10295 10300 10308 10318 10334 10350 10364 10375 10387 10401 10415 10427 10434 10436 10437 10438 10439 10436 10432 10426 10421 10414 10405 10402 10401 10398 10396 10397 10398 10404 10408 10415 10422 10429 10438 10445 10455
10418 10391 10365 10342 10324 10307 10297 10290 10286 10285 10287 10291 10298 10312 10328 10348 10361 10375 10389 10401 10417 10427 10429 10432 10434 10435 10434 10433 10429 10424 10417 10411 10405 10401 10399 10399 10400 10401 10405 10407 10413 10421 10425 10432 10440 10448 10457
10402 10375 10349 10326 10309 10296 10287 10284 10280 10280 10284 10290 10300 10315 10332 10347 10362 10377 10391 10406 10418 10424 10428 10431 10433 10432 10432 10430 10427 10421 10416 10411 10405 10400 10399 10399 10404 10406 10408 10412 10417 10423 10430 10435 10443 10450 10458
10386 10362 10338 10317 10301 10290 10283 10280 10280 10283 10288 10293 10303 10318 10333 10348 10365 10381 10395 10410 10417 10424 10427 10431 10430 10430 10431 10428 10426 10422 10417 10412 10406 10403 10402 10401 10403 10409 10412 10416 10421 10427 10434 10440 10447 10453 10459
10373 10349 10328 10311 10297 10288 10282 10281 10281 10285 10292 10303 10312 10324 10336 10350 10370 10385 10400 10410 10417 10424 10428 10429 10430 10431 10430 10429 10426 10423 10417 10413 10409 10407 10407 10408 10408 10411 10417 10421 10426 10431 10436 10442 10449 10454 10459
10367 10343 10325 10309 10299 10290 10285 10285 10288 10292 10298 10309 10314 10330 10349 10362 10375 10390 10403 10410 10420 10426 10428 10431 10431 10434 10431 10429 10427 10424 10420 10419 10414 10412 10412 10413 10413 10416 10419 10422 10426 10432 10437 10443 10449 10453 10460
10363 10342 10325 10313 10304 10296 10293 10293 10297 10304 10311 10320 10325 10339 10357 10371 10384 10396 10404 10412 10423 10429 10430 10433 10436 10438 10434 10432 10430 10428 10428 10425 10420 10418 10420 10421 10421 10422 10424 10426 10431 10436 10440 10444 10450 10455 10461
10363 10344 10329 10320 10311 10306 10305 10305 10308 10312 10322 10334 10342 10354 10367 10377 10389 10399 10407 10416 10425 10430 10434 10438 10442 10439 10435 10435 10434 10435 10435 10430 10426 10426 10427 10428 10429 10430 10431 10433 10436 10439 10443 10445 10450 10455 10462
10366 10351 10338 10330 10322 10317 10317 10318 10321 10324 10334 10346 10354 10366 10379 10387 10396 10403 10411 10420 10428 10432 10436 10441 10443 10441 10439 10441 10440 10442 10440 10437 10438 10437 10433 10433 10435 10437 10438 10440 10441 10441 10443 10450 10455 10459 10462
10371 10359 10350 10342 10336 10330 10329 10332 10333 10339 10349 10364 10375 10383 10391 10397 10403 10411 10418 10425 10430 10436 10440 10443 10445 10443 10444 10445 10445 10446 10446 10446 10446 10444 10441 10442 10440 10440 10439 10439 10440 10442 10445 10453 10457 10463 10466
10381 10369 10362 10354 10351 10348 10344 10345 10346 10351 10360 10372 10382 10392 10400 10406 10409 10417 10425 10430 10434 10439 10443 10447 10447 10448 10450 10451 10451 10451 10450 10452 10452 10451 10450 10449 10448 10448 10449 10449 10449 10454 10456 10462 10466 10468 10471
10389 10379 10375 10367 10368 10366 10364 10365 10365 10369 10375 10383 10392 10401 10407 10412 10418 10424 10431 10436 10440 10444 10448 10451 10453 10455 10458 10459 10459 10460 10460 10461 10461 10462 10461 10460 10462 10460 10463 10466 10468 10469 10472 10474 10476 10477 10476
10398 10389 10386 10378 10381 10383 10383 10384 10385 10387 10392 10396 10402 10410 10414 10421 10427 10431 10438 10443 10446 10450 10455 10456 10458 10461 10464 10465 10465 10465 10467 10468 10469 10470 10470 10472 10471 10471 10472 10474 10476 10478 10479 10480 10479 10477 10475
10407 10396 10393 10390 10394 10398 10399 10398 10398 10402 10407 10409 10413 10419 10423 10427 10433 10439 10445 10450 10452 10455 10460 10462 10464 10466 10470 10471 10471 10473 10474 10474 10474 10475 10475 10475 10475 10476 10478 10479 10480 10481 10479 10477 10476 10475 10472
10417 10410 10401 10399 10402 10408 10411 10410 10409 10413 10417 10420 10422 10428 10431 10434 10440 10445 10452 10455 10458 10461 10465 10467 10469 10471 10473 10474 10474 10475 10475 10476 10477 10478 10478 10477 10476 10476 10475 10475 10474 10473 10471 10469 10470 10466 10465
10427 10421 10417 10410 10412 10417 10421 10424 10422 10424 10426 10429 10431 10433 10436 10440 10445 10451 10457 10460 10462 10465 10467 10470 10471 10473 10475 10476 10476 10476 10477 10478 10478 10478 10478 10477 10477 10476 10476 10474 10473 10472 10468 10466 10464 10461 10457